Thursday, October 30, 2014
17:38 UTC
  |  Log In   |  Register Free
Airport Search:

Smithville Municipal Airport
(0A3)

Smithville Municipal Airport Diagram
No Airport Diagram Available

FAA data valid effective September 18, 2014 - November 13, 2014 (unless otherwise noted).

 
 
 
 
 
 
 
 
 
 
 
 
 
 

Current Aviation Weather for Smithville Municipal Airport (0A3)

METAR data is unavailable for 0A3. The nearest METAR location is at KSRB (14.2 nm NE from 0A3).

The most recent METAR observation for KSRB was updated at: 1719
METAR Summary (Translated METAR)
KSRB
301655Z AUTO VRB03KT 10SM CLR 14/05 A3011 RMK
(14.2 nm NE from 0A3)
KRNC
301655Z AUTO 03004KT 10SM CLR 13/05 A3012 RMK
(17.3 nm SW from 0A3)
TAF Summary (Translated TAF)
KRNC
(26.3 nm SW from KSRB)
311945Z AUTO 35008KT 10SM CLR 25/12 A3011 RMK AO1 T02500116 $
  Airport Weather Conditions for 0A3

Current weather conditions are
not available for 0A3


The nearest NOAA weather station
is at SRB, (14.2 nm NE from 0A3)
  
 Current Weather at SRB
57° F
Fair
Variable winds at 3.5 mph
SRB NOAA Radar

Pressure: 30.11 in
Humidity: 55%
Wind: Variable at 3.5 MPH (3 KT)
Dew Point: 41.0°F
Visibility: 10.00 mi


Airport Weather Forecast for 0A3

Translated METAR and TAF for KSRB
Translated METAR for KSRB (1733 UTC 30 October 2014)
found at http://aviationweather.gov/adds/metars/
 
METAR text: KSRB 301715Z AUTO 00000KT 10SM CLR 13/04 A3011 RMK
Conditions at: KSRB (SPARTA , TN, US) observed 1715 UTC 30 October 2014
Temperature: 13.0°C (55°F)
Dewpoint: 4.0°C (39°F) [RH = 54%]
Pressure (altimeter): 30.11 inches Hg (1019.7 mb)
Winds: calm
Visibility: 10 or more miles (16+ km)
Ceiling: at least 12,000 feet AGL
Clouds: sky clear below 12,000 feet AGL
Weather: no significant weather observed at this time
Translated TAF for KSRB

There is no translated TAF available for this airport

Find All Airport Services Find A Hotel Find A Rental Car Find A Golf Course Find A Restaurant $100 Hamburger



FBO's on the Field
FBO Company Facility Photos Services Transportation Aviation Fuel Prices: Prices include tax
Catering Weather Repair Courtesy Rental Type 100LL JetA JetA+ MOGAS 8087
 
Smithville Municipal Airport

This FBO has not yet been rated
FS:Shell
Last Updated: Oct-30
Login to update fuel prices
SS:
Contact Smithville Municipal AirportMore FBO Information
 
Add another FBO Facility Photos Catering Weather Repair Courtesy Rental Type 100LL JetA JetA+ MOGAS 8087
Services Transportation Aviation Fuel Prices: Prices include tax


model-print
model-print
model-print
model-print